| time (UTC) | temp C | wind direction | speed KPH | gust KPH | rain 1hr cm | rain 24hr cm | rain mn cm | humidity % | barometer mb |
| 20260831111746 | 21 | 149 | 0.0 | 0.0 | 0.00 | 0.00 | 0.00 | 96 | 1007.9 |
| 20260831111240 | 21 | 149 | 0.0 | 0.0 | 0.00 | 0.00 | 0.00 | 96 | 1007.8 |
| 20260831110734 | 21 | 149 | 0.0 | 0.0 | 0.00 | 0.00 | 0.00 | 96 | 1007.8 |
| 20260831110228 | 21 | 150 | 0.0 | 0.0 | 0.00 | 0.00 | 0.00 | 96 | 1007.7 |
| 20260831105722 | 21 | 150 | 0.0 | 0.0 | 0.00 | 0.00 | 0.00 | 95 | 1007.8 |
| 20260831105215 | 21 | 149 | 0.0 | 0.0 | 0.00 | 0.00 | 0.00 | 95 | 1007.8 |
| 20260831104710 | 21 | 150 | 0.0 | 0.0 | 0.00 | 0.00 | 0.00 | 95 | 1007.9 |
| 20260831104204 | 21 | 149 | 0.0 | 0.0 | 0.00 | 0.00 | 0.00 | 96 | 1008.0 |
| 20260831103658 | 21 | 150 | 0.0 | 0.0 | 0.00 | 0.00 | 0.00 | 95 | 1007.8 |
| 20260831103152 | 21 | 148 | 0.0 | 0.0 | 0.00 | 0.00 | 0.00 | 95 | 1007.7 |
| 20260831102646 | 21 | 149 | 0.0 | 0.0 | 0.00 | 0.00 | 0.00 | 95 | 1007.7 |
| 20260831102140 | 21 | 149 | 0.0 | 0.0 | 0.00 | 0.00 | 0.00 | 95 | 1007.7 |
| 20260831101634 | 21 | 149 | 0.0 | 0.0 | 0.00 | 0.00 | 0.00 | 95 | 1007.7 |
| 20260831101128 | 21 | 150 | 0.0 | 0.0 | 0.00 | 0.00 | 0.00 | 95 | 1007.7 |
| 20260831100622 | 21 | 157 | 0.0 | 0.0 | 0.00 | 0.00 | 0.00 | 95 | 1007.6 |
| 20260831100116 | 21 | 156 | 0.0 | 0.0 | 0.00 | 0.00 | 0.00 | 95 | 1007.6 |
| 20260831095609 | 21 | 157 | 0.0 | 0.0 | 0.00 | 0.00 | 0.00 | 95 | 1007.5 |
| 20260831095103 | 21 | 157 | 0.0 | 0.0 | 0.00 | 0.00 | 0.00 | 95 | 1007.4 |
| 20260831094558 | 21 | 157 | 0.0 | 0.0 | 0.00 | 0.00 | 0.00 | 95 | 1007.3 |
| 20260831094052 | 21 | 157 | 0.0 | 0.0 | 0.00 | 0.00 | 0.00 | 95 | 1007.4 |
| 20260831093546 | 21 | 157 | 0.0 | 0.0 | 0.00 | 0.00 | 0.00 | 94 | 1007.3 |
| 20260831093040 | 21 | 157 | 0.0 | 0.0 | 0.00 | 0.00 | 0.00 | 94 | 1007.4 |
| 20260831092533 | 21 | 156 | 0.0 | 0.0 | 0.00 | 0.00 | 0.00 | 94 | 1007.4 |
| 20260831092028 | 21 | 156 | 0.0 | 0.0 | 0.00 | 0.00 | 0.00 | 94 | 1007.5 |
| 20260831091522 | 21 | 157 | 0.0 | 0.0 | 0.00 | 0.00 | 0.00 | 94 | 1007.5 |
| 20260831091242 | 21 | 157 | 0.0 | 0.0 | 0.00 | 0.00 | 0.00 | 94 | 1007.7 |
| 20260831091116 | 21 | 157 | 0.0 | 0.0 | 0.00 | 0.00 | 0.00 | 94 | 1007.7 |
| 20260831090004 | 21 | 157 | 0.0 | 0.0 | 0.00 | 0.00 | 0.00 | 94 | 1007.8 |
| 20260831085458 | 21 | 157 | 0.0 | 0.0 | 0.00 | 0.00 | 0.00 | 94 | 1007.6 |
| 20260831084952 | 21 | 152 | 0.0 | 0.0 | 0.00 | 0.00 | 0.00 | 93 | 1007.5 |
| 20260831084452 | 22 | 153 | 0.0 | 0.0 | 0.00 | 0.00 | 0.00 | 93 | 1007.4 |
| 20260831083949 | 22 | 152 | 0.0 | 0.0 | 0.00 | 0.00 | 0.00 | 93 | 1007.3 |
| 20260831083449 | 22 | 152 | 0.0 | 0.0 | 0.00 | 0.00 | 0.00 | 93 | 1007.4 |
| 20260831082953 | 22 | 151 | 0.0 | 0.0 | 0.00 | 0.00 | 0.00 | 93 | 1007.4 |
| 20260831082448 | 22 | 152 | 0.0 | 0.0 | 0.00 | 0.00 | 0.00 | 93 | 1007.4 |
| 20260831081946 | 22 | 152 | 0.0 | 0.0 | 0.00 | 0.00 | 0.00 | 93 | 1007.3 |
| 20260831081443 | 22 | 152 | 0.0 | 0.0 | 0.00 | 0.00 | 0.00 | 92 | 1007.3 |
| 20260831081212 | 22 | 152 | 0.0 | 0.0 | 0.00 | 0.00 | 0.00 | 92 | 1007.3 |
| 20260831080440 | 22 | 152 | 0.0 | 0.0 | 0.00 | 0.00 | 0.00 | 92 | 1007.2 |
| 20260831080209 | 22 | 151 | 0.0 | 3.2 | 0.00 | 0.00 | 0.00 | 92 | 1007.2 |
| 20260831075440 | 22 | 152 | 0.0 | 3.2 | 0.00 | 0.00 | 0.00 | 92 | 1007.1 |
| 20260831074938 | 22 | 156 | 0.0 | 1.6 | 0.00 | 0.00 | 0.00 | 92 | 1007.2 |
| 20260831074710 | 22 | 162 | 0.0 | 1.6 | 0.00 | 0.00 | 0.00 | 92 | 1007.3 |
| 20260831073937 | 22 | 201 | 0.0 | 1.6 | 0.00 | 0.00 | 0.00 | 92 | 1007.3 |
| 20260831073436 | 22 | 169 | 0.0 | 1.6 | 0.00 | 0.00 | 0.00 | 92 | 1007.2 |
| 20260831072934 | 22 | 214 | 0.0 | 1.6 | 0.00 | 0.00 | 0.00 | 92 | 1007.3 |
| 20260831072434 | 22 | 259 | 0.0 | 1.6 | 0.00 | 0.00 | 0.00 | 91 | 1007.4 |
| 20260831071930 | 22 | 259 | 0.0 | 1.6 | 0.00 | 0.00 | 0.00 | 91 | 1007.4 |
| 20260831071429 | 22 | 260 | 0.0 | 0.0 | 0.00 | 0.00 | 0.00 | 91 | 1007.5 |
| 20260831071206 | 22 | 259 | 0.0 | 0.0 | 0.00 | 0.00 | 0.00 | 91 | 1007.6 |
| 20260831070426 | 22 | 259 | 0.0 | 0.0 | 0.00 | 0.00 | 0.00 | 91 | 1007.6 |
| 20260831070152 | 22 | 226 | 0.0 | 0.0 | 0.00 | 0.00 | 0.00 | 91 | 1007.6 |
| 20260831065645 | 22 | 226 | 0.0 | 1.6 | 0.00 | 0.00 | 0.00 | 91 | 1007.5 |
| 20260831064908 | 22 | 226 | 0.0 | 1.6 | 0.00 | 0.00 | 0.00 | 91 | 1007.6 |
| 20260831064403 | 22 | 151 | 0.0 | 1.6 | 0.00 | 0.00 | 0.00 | 91 | 1007.7 |
| 20260831063856 | 22 | 246 | 0.0 | 0.0 | 0.00 | 0.00 | 0.00 | 91 | 1007.8 |
| 20260831063351 | 22 | 266 | 0.0 | 0.0 | 0.00 | 0.00 | 0.00 | 90 | 1007.8 |
| 20260831062844 | 22 | 266 | 0.0 | 0.0 | 0.00 | 0.00 | 0.00 | 90 | 1007.9 |
| 20260831062346 | 22 | 277 | 0.0 | 1.6 | 0.00 | 0.00 | 0.00 | 90 | 1008.0 |
| 20260831062342 | 22 | 266 | 0.0 | 1.6 | 0.00 | 0.00 | 0.00 | 90 | 1008.0 |
| 20260831061338 | 23 | 248 | 0.0 | 0.0 | 0.00 | 0.00 | 0.00 | 90 | 1008.0 |
| 20260831061111 | 23 | 249 | 0.0 | 1.6 | 0.00 | 0.00 | 0.00 | 90 | 1008.1 |
| 20260831060607 | 23 | 249 | 0.0 | 1.6 | 0.00 | 0.00 | 0.00 | 90 | 1008.0 |
| 20260831055837 | 23 | 254 | 0.0 | 1.6 | 0.00 | 0.00 | 0.00 | 89 | 1008.0 |
| 20260831055336 | 23 | 254 | 0.0 | 3.2 | 0.00 | 0.00 | 0.00 | 89 | 1007.9 |
| 20260831054838 | 23 | 169 | 0.0 | 3.2 | 0.00 | 0.00 | 0.00 | 89 | 1008.0 |
| 20260831054608 | 23 | 131 | 0.0 | 1.6 | 0.00 | 0.00 | 0.00 | 89 | 1008.0 |
| 20260831054105 | 23 | 227 | 0.0 | 3.2 | 0.00 | 0.00 | 0.00 | 89 | 1008.0 |
| 20260831053336 | 23 | 163 | 0.0 | 3.2 | 0.00 | 0.00 | 0.00 | 89 | 1008.1 |
| 20260831052834 | 23 | 200 | 0.0 | 1.6 | 0.00 | 0.00 | 0.00 | 89 | 1008.2 |
| 20260831052333 | 23 | 249 | 0.0 | 3.2 | 0.00 | 0.00 | 0.00 | 89 | 1008.3 |
| 20260831052103 | 23 | 295 | 0.0 | 3.2 | 0.00 | 0.00 | 0.00 | 88 | 1008.4 |
| 20260831051329 | 23 | 342 | 0.0 | 3.2 | 0.00 | 0.00 | 0.00 | 88 | 1008.4 |
| 20260831050830 | 23 | 225 | 0.0 | 3.2 | 0.00 | 0.00 | 0.00 | 88 | 1008.4 |
| 20260831050330 | 23 | 153 | 0.0 | 3.2 | 0.00 | 0.00 | 0.00 | 88 | 1008.6 |
| 20260831045831 | 23 | 179 | 0.0 | 3.2 | 0.00 | 0.00 | 0.00 | 88 | 1008.7 |
| 20260831045329 | 23 | 155 | 0.0 | 3.2 | 0.00 | 0.00 | 0.00 | 87 | 1008.7 |
| 20260831045057 | 23 | 113 | 0.0 | 3.2 | 0.00 | 0.00 | 0.00 | 87 | 1008.8 |
| 20260831044324 | 23 | 152 | 0.0 | 3.2 | 0.00 | 0.00 | 0.00 | 87 | 1008.8 |
| 20260831043825 | 24 | 283 | 0.0 | 4.8 | 0.00 | 0.00 | 0.00 | 86 | 1008.9 |
| 20260831043323 | 24 | 107 | 0.0 | 4.8 | 0.00 | 0.00 | 0.00 | 86 | 1009.0 |
| 20260831043057 | 24 | 160 | 0.0 | 1.6 | 0.00 | 0.00 | 0.00 | 86 | 1009.1 |
| 20260831042322 | 24 | 75 | 0.0 | 1.6 | 0.00 | 0.00 | 0.00 | 85 | 1008.9 |
| 20260831042050 | 24 | 276 | 0.0 | 1.6 | 0.00 | 0.00 | 0.00 | 85 | 1008.9 |
| 20260831041944 | 24 | 242 | 0.0 | 4.8 | 0.00 | 0.00 | 0.00 | 85 | 1008.9 |
| 20260831040820 | 24 | 242 | 1.6 | 9.7 | 0.00 | 0.00 | 0.00 | 84 | 1008.9 |
| 20260831040312 | 24 | 174 | 0.0 | 9.7 | 0.00 | 0.00 | 0.00 | 84 | 1008.8 |
| 20260831035806 | 24 | 212 | 1.6 | 11.3 | 0.00 | 0.00 | 0.00 | 84 | 1008.8 |
| 20260831035306 | 24 | 252 | 0.0 | 11.3 | 0.00 | 0.00 | 0.00 | 84 | 1008.8 |
| 20260831034803 | 24 | 134 | 0.0 | 4.8 | 0.00 | 0.00 | 0.00 | 83 | 1008.7 |
| 20260831034301 | 25 | 113 | 0.0 | 4.8 | 0.00 | 0.00 | 0.00 | 83 | 1008.7 |
| 20260831033803 | 25 | 240 | 0.0 | 4.8 | 0.00 | 0.00 | 0.00 | 82 | 1008.8 |
| 20260831033300 | 25 | 249 | 0.0 | 9.7 | 0.00 | 0.00 | 0.00 | 82 | 1008.8 |
| 20260831032759 | 25 | 179 | 1.6 | 9.7 | 0.00 | 0.00 | 0.00 | 82 | 1008.8 |
| 20260831032259 | 25 | 236 | 1.6 | 8.0 | 0.00 | 0.00 | 0.00 | 81 | 1008.8 |
| 20260831031800 | 25 | 152 | 1.6 | 8.0 | 0.00 | 0.00 | 0.00 | 81 | 1008.8 |
| 20260831031533 | 25 | 190 | 0.0 | 4.8 | 0.00 | 0.00 | 0.00 | 81 | 1008.7 |
| 20260831030759 | 25 | 71 | 1.6 | 8.0 | 0.00 | 0.00 | 0.00 | 80 | 1008.6 |
| 20260831030259 | 25 | 265 | 1.6 | 8.0 | 0.00 | 0.00 | 0.00 | 80 | 1008.6 |
| 20260831025759 | 25 | 91 | 1.6 | 11.3 | 0.00 | 0.00 | 0.00 | 79 | 1008.5 |
| 20260831025259 | 25 | 112 | 1.6 | 12.9 | 0.00 | 0.00 | 0.00 | 79 | 1008.5 |
| 20260831024801 | 25 | 248 | 1.6 | 12.9 | 0.00 | 0.00 | 0.00 | 78 | 1008.4 |
| 20260831024255 | 26 | 249 | 1.6 | 8.0 | 0.00 | 0.00 | 0.00 | 78 | 1008.5 |
| 20260831023755 | 26 | 309 | 1.6 | 6.4 | 0.00 | 0.00 | 0.00 | 77 | 1008.5 |
| 20260831023259 | 26 | 96 | 3.2 | 8.0 | 0.00 | 0.00 | 0.00 | 77 | 1008.5 |
| 20260831022756 | 26 | 212 | 3.2 | 8.0 | 0.00 | 0.00 | 0.00 | 76 | 1008.5 |
| 20260831022253 | 26 | 159 | 3.2 | 8.0 | 0.00 | 0.00 | 0.00 | 75 | 1008.5 |
| 20260831021753 | 26 | 205 | 3.2 | 11.3 | 0.00 | 0.00 | 0.00 | 75 | 1008.5 |
| 20260831021252 | 26 | 242 | 3.2 | 14.5 | 0.00 | 0.00 | 0.00 | 74 | 1008.4 |
| 20260831020750 | 26 | 249 | 3.2 | 20.9 | 0.00 | 0.00 | 0.00 | 74 | 1008.5 |
| 20260831020251 | 26 | 170 | 1.6 | 20.9 | 0.00 | 0.00 | 0.00 | 74 | 1008.4 |
| 20260831015749 | 26 | 169 | 1.6 | 9.7 | 0.00 | 0.00 | 0.00 | 75 | 1008.3 |
| 20260831015522 | 26 | 127 | 0.0 | 6.4 | 0.00 | 0.00 | 0.00 | 78 | 1008.2 |
| 20260831015022 | 26 | 174 | 0.0 | 3.2 | 0.00 | 0.00 | 0.00 | 83 | 1008.3 |
| 20260831014248 | 26 | 221 | 0.0 | 1.6 | 0.00 | 0.00 | 0.00 | 85 | 1008.2 |
| 20260831014020 | 26 | 208 | 0.0 | 1.6 | 0.00 | 0.00 | 0.00 | 85 | 1008.2 |
| 20260831013245 | 26 | 141 | 0.0 | 1.6 | 0.00 | 0.00 | 0.00 | 85 | 1008.2 |
| 20260831012741 | 26 | 348 | 0.0 | 0.0 | 0.00 | 0.00 | 0.00 | 85 | 1008.3 |
| 20260831012241 | 26 | 350 | 0.0 | 3.2 | 0.00 | 0.00 | 0.00 | 85 | 1008.3 |
| 20260831012008 | 26 | 333 | 0.0 | 3.2 | 0.00 | 0.00 | 0.00 | 84 | 1008.1 |
| 20260831011238 | 26 | 25 | 0.0 | 1.6 | 0.00 | 0.00 | 0.00 | 84 | 1008.0 |
| 20260831010732 | 26 | 355 | 0.0 | 0.0 | 0.00 | 0.00 | 0.00 | 84 | 1008.0 |
| 20260831010226 | 26 | 66 | 0.0 | 0.0 | 0.00 | 0.00 | 0.00 | 83 | 1008.0 |
| 20260831005720 | 26 | 66 | 0.0 | 0.0 | 0.00 | 0.00 | 0.00 | 83 | 1008.0 |
| 20260831005214 | 26 | 68 | 0.0 | 1.6 | 0.00 | 0.00 | 0.00 | 83 | 1007.9 |
| 20260831004708 | 27 | 68 | 0.0 | 1.6 | 0.00 | 0.00 | 0.00 | 82 | 1007.9 |
| 20260831004202 | 27 | 317 | 0.0 | 1.6 | 0.00 | 0.00 | 0.00 | 82 | 1007.8 |
| 20260831003656 | 27 | 34 | 0.0 | 1.6 | 0.00 | 0.00 | 0.00 | 82 | 1007.9 |
| 20260831003150 | 27 | 97 | 0.0 | 1.6 | 0.00 | 0.00 | 0.00 | 81 | 1008.0 |
| 20260831002644 | 27 | 359 | 0.0 | 1.6 | 0.00 | 0.00 | 0.00 | 81 | 1008.1 |
| 20260831002138 | 27 | 358 | 0.0 | 0.0 | 0.00 | 0.00 | 0.00 | 81 | 1008.1 |
| 20260831002133 | 27 | 358 | 0.0 | 8.0 | 0.00 | 0.00 | 0.00 | 80 | 1008.0 |
| 20260831001356 | 27 | 352 | 0.0 | 8.0 | 0.00 | 0.00 | 0.00 | 80 | 1008.1 |
| 20260831000619 | 27 | 84 | 0.0 | 3.2 | 0.00 | 0.00 | 0.00 | 80 | 1008.0 |
| 20260831000111 | 27 | 0 | 0.0 | 1.6 | 0.00 | 0.00 | 0.00 | 80 | 1008.0 |
| 20260830235606 | 28 | 94 | 0.0 | 1.6 | 0.00 | 0.00 | 0.00 | 79 | 1007.9 |
| 20260830235601 | 28 | 355 | 0.0 | 1.6 | 0.00 | 0.00 | 0.00 | 78 | 1007.9 |
| 20260830234554 | 28 | 75 | 0.0 | 3.2 | 0.00 | 0.00 | 0.00 | 78 | 1008.0 |
| 20260830234047 | 28 | 91 | 0.0 | 3.2 | 0.00 | 0.00 | 0.00 | 77 | 1008.0 |
| 20260830233541 | 28 | 85 | 0.0 | 3.2 | 0.00 | 0.00 | 0.00 | 77 | 1008.0 |
| 20260830233036 | 28 | 8 | 0.0 | 1.6 | 0.00 | 0.00 | 0.00 | 76 | 1008.1 |
| 20260830232530 | 28 | 354 | 0.0 | 4.8 | 0.00 | 0.00 | 0.00 | 76 | 1008.1 |
| 20260830232023 | 28 | 25 | 0.0 | 4.8 | 0.00 | 0.00 | 0.00 | 75 | 1008.0 |
| 20260830231518 | 29 | 15 | 0.0 | 6.4 | 0.00 | 0.00 | 0.00 | 74 | 1007.9 |
| 20260830231011 | 29 | 95 | 0.0 | 6.4 | 0.00 | 0.00 | 0.00 | 73 | 1008.0 |
| 20260830230506 | 29 | 71 | 0.0 | 6.4 | 0.00 | 0.00 | 0.00 | 73 | 1008.2 |
| 20260830230000 | 29 | 322 | 0.0 | 6.4 | 0.00 | 0.00 | 0.00 | 73 | 1008.1 |
| 20260830225454 | 30 | 359 | 0.0 | 4.8 | 0.00 | 0.00 | 0.00 | 72 | 1008.0 |
| 20260830224948 | 30 | 98 | 0.0 | 4.8 | 0.00 | 0.00 | 0.00 | 72 | 1008.0 |
| 20260830224441 | 30 | 110 | 1.6 | 9.7 | 0.00 | 0.00 | 0.00 | 71 | 1008.1 |
| 20260830224208 | 30 | 97 | 0.0 | 6.4 | 0.00 | 0.00 | 0.00 | 70 | 1008.1 |
| 20260830223700 | 30 | 336 | 0.0 | 4.8 | 0.00 | 0.00 | 0.00 | 73 | 1008.1 |
| 20260830223155 | 30 | 75 | 0.0 | 9.7 | 0.00 | 0.00 | 0.00 | 73 | 1008.1 |
| 20260830222650 | 29 | 322 | 1.6 | 9.7 | 0.00 | 0.00 | 0.00 | 72 | 1008.0 |
| 20260830221912 | 29 | 340 | 1.6 | 11.3 | 0.00 | 0.00 | 0.00 | 73 | 1007.9 |
| 20260830221406 | 29 | 345 | 1.6 | 11.3 | 0.00 | 0.00 | 0.00 | 73 | 1008.1 |
| 20260830220900 | 29 | 113 | 0.0 | 8.0 | 0.00 | 0.00 | 0.00 | 73 | 1008.2 |
| 20260830220354 | 29 | 134 | 1.6 | 8.0 | 0.00 | 0.00 | 0.00 | 75 | 1008.3 |
| 20260830220119 | 28 | 22 | 1.6 | 6.4 | 0.00 | 0.00 | 0.00 | 76 | 1008.2 |
| 20260830215612 | 28 | 339 | 1.6 | 6.4 | 0.00 | 0.00 | 0.00 | 75 | 1008.3 |
| 20260830214836 | 28 | 58 | 1.6 | 6.4 | 0.00 | 0.00 | 0.00 | 77 | 1008.3 |
| 20260830214330 | 28 | 50 | 1.6 | 8.0 | 0.00 | 0.00 | 0.00 | 75 | 1008.3 |
| 20260830213824 | 28 | 88 | 1.6 | 8.0 | 0.00 | 0.00 | 0.00 | 77 | 1008.4 |
| 20260830213318 | 28 | 122 | 0.0 | 6.4 | 0.00 | 0.00 | 0.00 | 77 | 1008.5 |
| 20260830212812 | 28 | 325 | 0.0 | 4.8 | 0.00 | 0.00 | 0.00 | 77 | 1008.6 |
| 20260830212306 | 28 | 105 | 0.0 | 4.8 | 0.00 | 0.00 | 0.00 | 76 | 1008.5 |
| 20260830211759 | 28 | 89 | 1.6 | 6.4 | 0.00 | 0.00 | 0.00 | 76 | 1008.6 |
| 20260830210748 | 28 | 184 | 1.6 | 6.4 | 0.00 | 0.00 | 0.00 | 77 | 1008.8 |
| 20260830210242 | 28 | 43 | 1.6 | 8.0 | 0.00 | 0.00 | 0.00 | 77 | 1008.7 |
| 20260830205735 | 28 | 295 | 1.6 | 8.0 | 0.00 | 0.00 | 0.00 | 76 | 1008.7 |
| 20260830205231 | 28 | 18 | 1.6 | 6.4 | 0.00 | 0.00 | 0.00 | 78 | 1008.7 |
| 20260830204724 | 27 | 300 | 1.6 | 6.4 | 0.00 | 0.00 | 0.00 | 79 | 1008.8 |
| 20260830204218 | 27 | 146 | 1.6 | 6.4 | 0.00 | 0.00 | 0.00 | 79 | 1008.8 |
| 20260830203942 | 27 | 149 | 1.6 | 4.8 | 0.00 | 0.00 | 0.00 | 79 | 1008.8 |
| 20260830203205 | 27 | 120 | 1.6 | 8.0 | 0.00 | 0.00 | 0.00 | 78 | 1008.7 |
| 20260830202659 | 27 | 125 | 1.6 | 8.0 | 0.00 | 0.00 | 0.00 | 78 | 1008.7 |
| 20260830202154 | 27 | 338 | 1.6 | 8.0 | 0.00 | 0.00 | 0.00 | 77 | 1008.7 |
| 20260830201921 | 28 | 343 | 1.6 | 11.3 | 0.00 | 0.00 | 0.00 | 76 | 1008.7 |
| 20260830201142 | 28 | 277 | 1.6 | 11.3 | 0.00 | 0.00 | 0.00 | 77 | 1008.6 |
| 20260830200635 | 28 | 331 | 1.6 | 6.4 | 0.00 | 0.00 | 0.00 | 76 | 1008.6 |
| 20260830200130 | 28 | 9 | 1.6 | 8.0 | 0.00 | 0.00 | 0.00 | 77 | 1008.7 |
| 20260830195854 | 27 | 0 | 1.6 | 8.0 | 0.00 | 0.00 | 0.00 | 79 | 1008.8 |
| 20260830195117 | 27 | 15 | 1.6 | 9.7 | 0.00 | 0.00 | 0.00 | 80 | 1008.8 |
| 20260830194612 | 27 | 85 | 3.2 | 11.3 | 0.00 | 0.00 | 0.00 | 78 | 1008.8 |
| 20260830194106 | 27 | 155 | 1.6 | 11.3 | 0.00 | 0.00 | 0.00 | 80 | 1008.7 |
| 20260830193600 | 26 | 12 | 1.6 | 8.0 | 0.00 | 0.00 | 0.00 | 81 | 1009.1 |
| 20260830193054 | 26 | 276 | 1.6 | 6.4 | 0.00 | 0.00 | 0.00 | 81 | 1009.3 |
| 20260830192548 | 26 | 359 | 1.6 | 4.8 | 0.00 | 0.00 | 0.00 | 81 | 1009.5 |
| 20260830192042 | 26 | 345 | 1.6 | 4.8 | 0.00 | 0.00 | 0.00 | 82 | 1009.6 |
| 20260830191536 | 26 | 15 | 1.6 | 4.8 | 0.00 | 0.00 | 0.00 | 81 | 1009.6 |
| 20260830191030 | 26 | 319 | 0.0 | 4.8 | 0.00 | 0.00 | 0.00 | 82 | 1009.7 |
| 20260830190524 | 26 | 39 | 0.0 | 4.8 | 0.00 | 0.00 | 0.00 | 82 | 1009.9 |
| 20260830190018 | 26 | 46 | 0.0 | 4.8 | 0.00 | 0.00 | 0.00 | 83 | 1009.9 |
| 20260830185512 | 26 | 346 | 0.0 | 3.2 | 0.00 | 0.00 | 0.00 | 81 | 1009.9 |
| 20260830185006 | 26 | 18 | 0.0 | 3.2 | 0.00 | 0.00 | 0.00 | 83 | 1010.0 |
| 20260830184500 | 26 | 108 | 0.0 | 3.2 | 0.00 | 0.00 | 0.00 | 85 | 1010.0 |
| 20260830184224 | 25 | 345 | 0.0 | 1.6 | 0.00 | 0.00 | 0.00 | 84 | 1010.0 |
| 20260830183448 | 25 | 312 | 0.0 | 1.6 | 0.00 | 0.00 | 0.00 | 85 | 1010.1 |
| 20260830182941 | 25 | 98 | 0.0 | 1.6 | 0.00 | 0.00 | 0.00 | 85 | 1010.1 |
| 20260830182436 | 25 | 72 | 0.0 | 3.2 | 0.00 | 0.00 | 0.00 | 85 | 1009.8 |
| 20260830182201 | 25 | 330 | 0.0 | 3.2 | 0.00 | 0.00 | 0.00 | 85 | 1009.9 |
| 20260830181424 | 25 | 98 | 0.0 | 3.2 | 0.00 | 0.00 | 0.00 | 85 | 1010.1 |
| 20260830180917 | 25 | 33 | 0.0 | 3.2 | 0.00 | 0.00 | 0.00 | 85 | 1010.1 |
| 20260830180412 | 25 | 145 | 0.0 | 4.8 | 0.00 | 0.00 | 0.00 | 86 | 1010.2 |
| 20260830175906 | 25 | 6 | 0.0 | 8.0 | 0.00 | 0.00 | 0.00 | 85 | 1010.3 |
| 20260830175359 | 25 | 109 | 0.0 | 8.0 | 0.00 | 0.00 | 0.00 | 85 | 1010.2 |
| 20260830174854 | 24 | 336 | 0.0 | 4.8 | 0.00 | 0.00 | 0.00 | 85 | 1010.2 |
| 20260830174348 | 24 | 340 | 0.0 | 1.6 | 0.00 | 0.00 | 0.00 | 86 | 1010.2 |
| 20260830173841 | 24 | 20 | 0.0 | 1.6 | 0.00 | 0.00 | 0.00 | 86 | 1010.1 |
| 20260830173336 | 24 | 330 | 0.0 | 1.6 | 0.00 | 0.00 | 0.00 | 86 | 1010.3 |
| 20260830172830 | 24 | 99 | 0.0 | 4.8 | 0.00 | 0.00 | 0.00 | 86 | 1010.3 |
| 20260830172324 | 24 | 337 | 0.0 | 4.8 | 0.00 | 0.00 | 0.00 | 86 | 1010.4 |
| 20260830171818 | 24 | 312 | 0.0 | 1.6 | 0.00 | 0.00 | 0.00 | 86 | 1010.4 |
| 20260830171312 | 24 | 222 | 0.0 | 1.6 | 0.00 | 0.00 | 0.00 | 86 | 1010.3 |
| 20260830170806 | 24 | 115 | 0.0 | 4.8 | 0.00 | 0.00 | 0.00 | 86 | 1010.1 |
| 20260830170259 | 24 | 343 | 0.0 | 4.8 | 0.00 | 0.00 | 0.00 | 86 | 1010.2 |
| 20260830165754 | 24 | 291 | 0.0 | 11.3 | 0.00 | 0.00 | 0.00 | 86 | 1009.9 |
| 20260830165249 | 23 | 127 | 0.0 | 11.3 | 0.00 | 0.00 | 0.00 | 86 | 1009.9 |
| 20260830165243 | 23 | 356 | 0.0 | 4.8 | 0.00 | 0.00 | 0.00 | 87 | 1009.9 |
| 20260830164236 | 23 | 345 | 0.0 | 4.8 | 0.00 | 0.00 | 0.00 | 87 | 1010.1 |
| 20260830163730 | 23 | 322 | 0.0 | 3.2 | 0.00 | 0.00 | 0.00 | 87 | 1010.0 |
| 20260830163223 | 23 | 338 | 0.0 | 3.2 | 0.00 | 0.00 | 0.00 | 87 | 1010.0 |
| 20260830162718 | 23 | 341 | 0.0 | 8.0 | 0.00 | 0.00 | 0.00 | 87 | 1009.9 |
| 20260830162219 | 23 | 335 | 1.6 | 8.0 | 0.00 | 0.00 | 0.00 | 87 | 1009.9 |
| 20260830161706 | 23 | 356 | 0.0 | 4.8 | 0.00 | 0.00 | 0.00 | 88 | 1009.8 |
| 20260830161430 | 23 | 339 | 0.0 | 4.8 | 0.00 | 0.00 | 0.00 | 88 | 1009.8 |
| 20260830160925 | 23 | 308 | 0.0 | 4.8 | 0.00 | 0.00 | 0.00 | 88 | 1009.8 |
| 20260830160147 | 23 | 39 | 0.0 | 6.4 | 0.00 | 0.00 | 0.00 | 88 | 1009.8 |
| 20260830155642 | 23 | 40 | 0.0 | 6.4 | 0.00 | 0.00 | 0.00 | 87 | 1009.8 |
| 20260830155136 | 23 | 356 | 0.0 | 1.6 | 0.00 | 0.00 | 0.00 | 87 | 1010.0 |
| 20260830154629 | 23 | 358 | 0.0 | 3.2 | 0.00 | 0.00 | 0.00 | 88 | 1010.0 |
| 20260830154123 | 23 | 350 | 0.0 | 3.2 | 0.00 | 0.00 | 0.00 | 88 | 1010.0 |
| 20260830153617 | 23 | 345 | 0.0 | 3.2 | 0.00 | 0.00 | 0.00 | 87 | 1010.0 |
| 20260830153111 | 23 | 98 | 0.0 | 3.2 | 0.00 | 0.00 | 0.00 | 88 | 1009.8 |
| 20260830152606 | 23 | 345 | 0.0 | 3.2 | 0.00 | 0.00 | 0.00 | 89 | 1010.1 |
| 20260830152100 | 22 | 93 | 0.0 | 6.4 | 0.00 | 0.00 | 0.00 | 90 | 1010.1 |
| 20260830151559 | 22 | 67 | 0.0 | 6.4 | 0.00 | 0.00 | 0.00 | 89 | 1009.9 |
| 20260830151048 | 22 | 345 | 0.0 | 3.2 | 0.00 | 0.00 | 0.00 | 89 | 1009.5 |
| 20260830150542 | 22 | 71 | 0.0 | 4.8 | 0.00 | 0.00 | 0.00 | 89 | 1009.3 |
| 20260830150307 | 22 | 15 | 0.0 | 4.8 | 0.00 | 0.00 | 0.00 | 89 | 1009.7 |
| 20260830145530 | 22 | 348 | 0.0 | 4.8 | 0.00 | 0.00 | 0.00 | 90 | 1009.8 |
| 20260830145024 | 21 | 89 | 0.0 | 3.2 | 0.00 | 0.00 | 0.00 | 91 | 1009.9 |
| 20260830144750 | 21 | 356 | 0.0 | 3.2 | 0.00 | 0.00 | 0.00 | 92 | 1010.1 |
| 20260830144243 | 21 | 94 | 1.6 | 4.8 | 0.00 | 0.00 | 0.00 | 91 | 1010.2 |
| 20260830143507 | 21 | 350 | 0.0 | 4.8 | 0.00 | 0.00 | 0.00 | 91 | 1010.0 |
| 20260830142959 | 21 | 339 | 0.0 | 4.8 | 0.00 | 0.00 | 0.00 | 91 | 1010.0 |
| 20260830142454 | 21 | 7 | 0.0 | 3.2 | 0.00 | 0.00 | 0.00 | 92 | 1010.1 |
| 20260830141948 | 21 | 131 | 0.0 | 3.2 | 0.00 | 0.00 | 0.00 | 93 | 1010.0 |
| 20260830141442 | 20 | 49 | 0.0 | 3.2 | 0.00 | 0.00 | 0.00 | 93 | 1009.8 |
| 20260830140936 | 20 | 357 | 0.0 | 1.6 | 0.00 | 0.00 | 0.00 | 94 | 1009.9 |
| 20260830140430 | 20 | 356 | 0.0 | 1.6 | 0.00 | 0.03 | 0.00 | 94 | 1010.0 |
| 20260830135924 | 20 | 25 | 0.0 | 4.8 | 0.00 | 0.03 | 0.00 | 94 | 1010.1 |
| 20260830135418 | 20 | 100 | 0.0 | 4.8 | 0.00 | 0.03 | 0.00 | 94 | 1010.0 |
| 20260830134912 | 20 | 93 | 0.0 | 3.2 | 0.00 | 0.03 | 0.00 | 94 | 1009.9 |
| 20260830134406 | 20 | 23 | 0.0 | 3.2 | 0.00 | 0.03 | 0.00 | 94 | 1010.0 |
| 20260830133901 | 20 | 92 | 0.0 | 3.2 | 0.00 | 0.03 | 0.00 | 95 | 1009.8 |
| 20260830133855 | 20 | 115 | 0.0 | 3.2 | 0.00 | 0.05 | 0.00 | 95 | 1009.7 |
| 20260830132847 | 20 | 102 | 0.0 | 1.6 | 0.00 | 0.05 | 0.00 | 95 | 1009.9 |
| 20260830132342 | 20 | 25 | 0.0 | 3.2 | 0.00 | 0.08 | 0.00 | 95 | 1010.0 |
| 20260830131836 | 19 | 9 | 0.0 | 4.8 | 0.00 | 0.15 | 0.00 | 95 | 1010.1 |
| 20260830131329 | 19 | 16 | 0.0 | 4.8 | 0.00 | 0.18 | 0.00 | 95 | 1010.2 |
| 20260830130823 | 19 | 324 | 0.0 | 1.6 | 0.00 | 0.20 | 0.00 | 95 | 1010.2 |
| 20260830130317 | 19 | 324 | 0.0 | 1.6 | 0.00 | 0.20 | 0.00 | 95 | 1010.1 |
| 20260830125812 | 19 | 322 | 0.0 | 1.6 | 0.00 | 0.20 | 0.00 | 96 | 1010.0 |
| 20260830125537 | 19 | 300 | 0.0 | 1.6 | 0.00 | 0.20 | 0.00 | 96 | 1009.9 |
| 20260830124800 | 19 | 350 | 0.0 | 1.6 | 0.00 | 0.20 | 0.00 | 96 | 1009.9 |
| 20260830124253 | 19 | 345 | 0.0 | 1.6 | 0.00 | 0.20 | 0.00 | 96 | 1009.9 |
| 20260830124019 | 19 | 345 | 0.0 | 1.6 | 0.00 | 0.20 | 0.00 | 96 | 1010.1 |
| 20260830123243 | 19 | 351 | 0.0 | 1.6 | 0.00 | 0.20 | 0.00 | 96 | 1010.3 |
| 20260830123238 | 19 | 350 | 0.0 | 1.6 | 0.00 | 0.20 | 0.00 | 96 | 1010.1 |
| 20260830122230 | 19 | 0 | 0.0 | 3.2 | 0.00 | 0.20 | 0.00 | 96 | 1010.0 |
| 20260830121724 | 19 | 4 | 0.0 | 3.2 | 0.00 | 0.25 | 0.00 | 96 | 1010.0 |
| 20260830121218 | 18 | 105 | 0.0 | 0.0 | 0.00 | 0.28 | 0.00 | 96 | 1009.7 |
| 20260830120712 | 18 | 351 | 0.0 | 0.0 | 0.00 | 0.28 | 0.00 | 96 | 1009.6 |
| 20260830120206 | 18 | 351 | 0.0 | 0.0 | 0.00 | 0.30 | 0.00 | 96 | 1009.7 |
| 20260830120201 | 18 | 352 | 0.0 | 0.0 | 0.00 | 0.30 | 0.00 | 96 | 1009.7 |
| 20260830115155 | 18 | 345 | 0.0 | 0.0 | 0.00 | 0.33 | 0.00 | 96 | 1009.7 |
| 20260830114647 | 18 | 345 | 0.0 | 0.0 | 0.00 | 0.38 | 0.00 | 96 | 1009.5 |
| 20260830114142 | 18 | 343 | 0.0 | 0.0 | 0.00 | 0.41 | 0.00 | 96 | 1009.3 |
| 20260830113906 | 18 | 343 | 0.0 | 0.0 | 0.00 | 0.41 | 0.00 | 96 | 1009.5 |
| 20260830113130 | 18 | 342 | 0.0 | 1.6 | 0.00 | 0.43 | 0.00 | 96 | 1009.6 |
| 20260830112624 | 18 | 341 | 0.0 | 1.6 | 0.00 | 0.43 | 0.00 | 96 | 1009.7 |
| 20260830112118 | 18 | 342 | 0.0 | 0.0 | 0.00 | 0.43 | 0.00 | 96 | 1009.8 |